Temp
12 11 11 11 11 11 11 10 11 11 10 10 10 9 9 10 10 10 10 10 10 9 9 9 9 9 9 9 9 9 8 9 8 8 8 7 7 7 8 8 7 7 7
12 10 11 11 9 9 9 10 10 10 10 10 10 9 9 9 10 10 10 10 10 10 9 9 9 9 9 9 9 9 9 9 8 8 7 7 7 8 7 7 7 7 7
11 11 10 9 8 5 8 8 9 8 9 8 9 8 9 9 9 10 9 10 10 10 9 9 9 10 10 10 10 9 9 9 9 8 8 8 8 8 8 7 7 7 7
11 10 9 8 8 6 10 10 8 8 10 7 7 7 8 8 8 9 9 9 10 10 10 10 9 9 9 9 9 9 9 9 9 8 8 8 9 9 8 8 8 8 8
9 9 9 9 8 8 8 10 9 7 7 7 7 8 8 8 8 9 9 9 10 10 10 9 9 9 9 8 8 9 9 9 9 9 8 8 8 8 8 8 8 8 8
10 10 9 9 10 10 9 8 8 8 7 7 8 8 8 8 9 8 8 9 9 10 10 9 9 9 9 8 8 8 8 9 8 8 8 9 8 8 8 8 8 7 7
9 9 10 10 9 9 9 10 9 8 8 6 7 7 7 8 8 8 8 9 9 9 9 9 9 9 8 8 8 8 8 8 7 8 8 8 8 8 8 7 7 7 7
9 9 9 9 8 9 8 9 9 8 7 7 7 7 6 6 7 7 7 8 9 9 9 9 8 8 8 7 7 7 7 7 7 7 8 8 8 8 8 7 7 7 7
9 9 8 8 8 8 8 8 8 8 7 7 6 7 6 7 6 6 7 7 8 8 8 8 8 8 7 7 8 7 7 8 7 7 7 7 8 8 8 8 7 7 7
7 7 8 8 7 7 8 8 8 7 7 6 6 6 7 6 6 6 6 6 7 7 8 8 8 8 7 7 7 8 7 7 7 7 7 7 7 7 8 8 7 7 7
7 7 7 7 7 7 7 7 6 6 6 6 6 6 6 6 6 6 6 6 7 7 7 7 8 7 7 7 7 7 8 7 7 7 7 7 7 7 7 7 7 7 7
8 8 7 7 7 6 6 7 7 7 6 7 7 7 7 6 7 6 6 6 6 6 6 7 7 7 6 7 7 7 7 7 7 7 7 7 7 8 7 7 7 7 6
7 7 7 7 7 7 6 6 6 6 6 6 6 6 6 6 7 6 6 6 6 7 7 6 7 6 7 7 7 7 7 7 8 8 7 8 8 7 6 6 7 6 6
6 7 7 7 7 7 6 6 6 7 6 6 7 7 7 7 7 7 7 7 6 7 7 7 7 7 7 7 7 7 7 7 7 6 7 7 7 6 6 7 7 6 6
6 6 6 6 6 6 6 6 6 6 6 6 6 6 6 6 6 6 7 8 8 7 8 8 8 7 7 6 6 6 7 7 7 7 6 6 6 6 6 6 6 6 6
6 6 5 5 5 5 5 5 5 5 6 6 6 6 6 6 6 6 6 6 6 7 7 7 7 7 7 7 7 7 7 7 7 6 6 6 6 6 6 6 6 5 5
5 5 5 5 5 5 5 6 6 5 5 5 5 6 5 5 5 6 6 6 6 6 7 7 7 6 7 7 7 6 7 6 6 6 6 6 6 6 6 5 5 5 5
5 5 5 5 5 6 6 6 6 5 5 5 5 4 4 4 4 4 5 5 6 6 6 6 7 7 6 6 6 5 5 5 5 5 5 5 6 6 6 5 5 6 5
5 5 4 5 5 5 5 5 4 4 4 3 3 3 3 3 4 4 4 5 5 6 6 6 6 6 6 6 6 5 5 5 5 5 5 6 6 6 6 6 5 5 5
4 4 4 4 4 4 4 4 3 2 2 2 3 3 3 3 3 3 4 4 4 5 5 5 6 6 6 5 5 5 5 5 5 5 6 6 5 5 5 5 5 5 5
4 4 4 3 4 3 3 3 1 0 0 1 3 3 2 3 3 3 3 3 4 4 4 4 4 4 5 5 4 4 4 5 5 6 5 6 6 5 5 5 5 4 4
3 4 3 3 3 3 3 2 2 2 2 2 2 2 2 2 3 3 3 3 3 3 3 3 3 4 4 4 4 3 4 5 5 5 5 5 5 5 5 5 5 5 4
3 3 2 3 2 2 2 1 1 1 2 1 2 2 2 2 2 2 2 2 2 1 1 1 0 0 2 2 2 3 3 3 4 4 4 4 5 5 4 4 3 3 3
2 2 2 2 2 1 -0 -1 -1 -0 -0 -0 0 1 1 1 1 1 1 1 1 0 -0 -0 0 1 1 2 1 2 2 2 3 3 3 4 4 3 3 4 3 3 3
2 2 2 1 0 -0 -1 -1 -1 -1 -1 -1 -0 0 0 -0 0 0 1 1 0 0 -0 -0 -0 -1 -0 0 1 1 0 0 2 2 2 2 2 2 1 1 0 0 -0
1 1 1 -1 -1 -1 -1 -1 -1 -1 -1 -1 -1 -1 -1 -1 -0 0 0 1 0 0 0 -0 -0 -1 -1 -1 -0 0 0 -0 0 0 0 0 0 0 0 -0 -0 -0 -1
Height
3092 3099 3102 3104 3104 3108 3110 3115 3119 3122 3123 3125 3127 3128 3130 3132 3132 3133 3135 3138 3139 3140 3142 3143 3145 3147 3147 3147 3147 3146 3146 3146 3146 3143 3143 3144 3146 3147 3148 3149 3150 3150 3149
3086 3088 3090 3089 3091 3093 3098 3102 3110 3115 3116 3118 3120 3122 3124 3128 3128 3129 3130 3134 3135 3136 3138 3138 3140 3141 3143 3143 3143 3142 3142 3142 3143 3143 3143 3141 3142 3143 3144 3144 3145 3145 3145
3076 3080 3085 3079 3062 3084 3090 3073 3099 3107 3110 3111 3112 3110 3119 3123 3124 3126 3126 3129 3132 3132 3135 3137 3136 3138 3139 3141 3141 3140 3138 3137 3139 3139 3139 3139 3139 3139 3140 3141 3141 3141 3140
3074 3072 3075 3082 3082 3082 3090 3073 3088 3092 3096 3094 3098 3103 3111 3118 3120 3122 3124 3125 3129 3131 3131 3134 3133 3134 3134 3135 3137 3137 3136 3135 3134 3135 3136 3135 3136 3136 3137 3137 3137 3137 3137
3072 3065 3068 3080 3079 3078 3078 3070 3081 3085 3085 3087 3094 3101 3108 3110 3113 3116 3119 3121 3124 3127 3129 3131 3132 3130 3129 3130 3132 3132 3131 3132 3131 3131 3131 3131 3132 3132 3132 3132 3132 3131 3131
3073 3074 3075 3075 3076 3071 3066 3067 3076 3080 3083 3087 3093 3096 3100 3105 3107 3111 3115 3116 3118 3120 3125 3126 3127 3128 3127 3125 3127 3128 3128 3127 3127 3127 3127 3127 3126 3126 3127 3126 3126 3125 3125
3068 3070 3072 3070 3068 3064 3064 3067 3070 3074 3077 3082 3088 3092 3095 3097 3102 3106 3108 3111 3112 3115 3118 3120 3122 3123 3125 3124 3123 3122 3122 3121 3121 3121 3122 3122 3121 3122 3122 3122 3122 3121 3120
3063 3066 3067 3066 3067 3065 3065 3064 3065 3070 3075 3079 3083 3085 3087 3087 3093 3099 3102 3104 3106 3109 3112 3114 3116 3117 3119 3121 3120 3118 3118 3117 3116 3117 3118 3117 3116 3116 3117 3117 3117 3116 3116
3061 3062 3064 3064 3066 3064 3065 3064 3064 3066 3071 3073 3077 3080 3081 3084 3087 3090 3093 3097 3100 3103 3105 3108 3109 3111 3112 3114 3113 3113 3113 3113 3113 3112 3114 3112 3111 3112 3113 3112 3113 3112 3111
3062 3062 3062 3061 3062 3064 3064 3063 3064 3067 3069 3071 3074 3073 3074 3076 3081 3085 3088 3090 3092 3095 3099 3102 3105 3106 3107 3107 3106 3107 3106 3107 3107 3107 3108 3106 3106 3106 3107 3107 3107 3106 3106
3061 3062 3061 3059 3062 3063 3063 3063 3062 3063 3064 3067 3069 3069 3070 3070 3073 3078 3081 3085 3087 3088 3090 3092 3095 3096 3099 3100 3099 3098 3100 3102 3101 3100 3101 3100 3100 3101 3101 3101 3101 3101 3101
3062 3062 3061 3062 3061 3059 3058 3056 3056 3058 3061 3062 3061 3063 3065 3066 3070 3073 3075 3077 3077 3079 3081 3083 3085 3087 3088 3090 3089 3091 3092 3092 3092 3091 3091 3092 3092 3094 3095 3095 3095 3095 3095
3060 3059 3059 3059 3058 3058 3057 3056 3055 3056 3057 3058 3057 3060 3061 3063 3065 3067 3069 3070 3070 3071 3071 3073 3075 3077 3079 3079 3080 3079 3081 3082 3082 3082 3082 3083 3086 3087 3086 3087 3088 3088 3088
3057 3056 3056 3055 3055 3054 3054 3054 3055 3056 3054 3053 3054 3056 3056 3057 3058 3059 3060 3062 3062 3061 3061 3061 3062 3064 3065 3065 3067 3068 3069 3071 3070 3071 3072 3074 3076 3076 3077 3078 3079 3079 3080
3054 3053 3052 3052 3050 3050 3050 3051 3051 3050 3051 3051 3050 3051 3050 3049 3050 3050 3052 3053 3052 3051 3051 3051 3051 3052 3053 3054 3054 3055 3055 3057 3057 3058 3058 3060 3063 3066 3066 3069 3069 3070 3070
3049 3048 3048 3048 3047 3047 3046 3046 3046 3046 3045 3045 3045 3045 3045 3043 3043 3044 3044 3042 3042 3041 3040 3040 3040 3041 3042 3043 3042 3041 3042 3043 3043 3044 3045 3046 3048 3051 3055 3057 3059 3060 3061
3048 3046 3045 3044 3044 3043 3043 3043 3043 3043 3043 3042 3041 3041 3040 3038 3039 3038 3036 3035 3033 3032 3031 3031 3030 3029 3029 3029 3028 3028 3028 3030 3031 3030 3031 3033 3035 3037 3041 3044 3047 3049 3052
3046 3044 3043 3043 3042 3041 3039 3039 3039 3039 3038 3037 3036 3037 3035 3034 3033 3032 3030 3027 3025 3023 3022 3021 3020 3018 3017 3017 3017 3017 3018 3019 3020 3020 3021 3022 3023 3024 3027 3030 3034 3039 3040
3044 3042 3042 3041 3040 3039 3038 3037 3037 3035 3033 3033 3032 3031 3029 3027 3025 3024 3023 3020 3018 3017 3014 3012 3010 3008 3007 3006 3007 3008 3008 3008 3009 3010 3010 3010 3013 3014 3015 3020 3023 3027 3031
3043 3041 3040 3038 3038 3035 3033 3033 3031 3031 3029 3027 3026 3025 3023 3021 3019 3018 3014 3011 3010 3008 3006 3003 3000 2998 2996 2995 2996 2997 2997 2999 3000 2999 3000 3001 3000 3004 3006 3006 3011 3015 3019
3042 3039 3036 3035 3033 3031 3029 3028 3027 3026 3024 3022 3021 3020 3018 3015 3013 3011 3009 3005 3002 2999 2997 2994 2992 2989 2987 2985 2986 2987 2987 2987 2987 2989 2989 2989 2990 2992 2995 2996 2996 3001 3007
3038 3037 3035 3031 3028 3026 3025 3024 3023 3021 3019 3017 3016 3014 3012 3010 3007 3006 3004 3000 2995 2992 2990 2987 2983 2981 2979 2978 2976 2977 2979 2978 2977 2980 2980 2980 2981 2982 2985 2988 2989 2993 2996
3035 3032 3030 3028 3025 3022 3021 3020 3018 3015 3013 3011 3009 3007 3006 3004 3003 3001 2998 2994 2991 2988 2985 2980 2978 2978 2975 2971 2968 2969 2971 2970 2970 2971 2972 2972 2973 2972 2975 2978 2980 2982 2984
3030 3028 3025 3024 3022 3019 3017 3017 3015 3012 3009 3007 3004 3002 3001 2999 2998 2996 2993 2990 2987 2984 2982 2979 2976 2976 2974 2971 2968 2965 2963 2961 2960 2962 2964 2961 2964 2964 2965 2968 2971 2974 2980
3025 3023 3021 3019 3017 3015 3013 3012 3010 3008 3005 3003 3001 2998 2996 2994 2992 2989 2987 2985 2983 2981 2978 2976 2976 2974 2973 2969 2967 2962 2959 2957 2956 2956 2955 2956 2955 2953 2954 2959 2964 2966 2972
3018 3016 3014 3013 3011 3010 3008 3006 3005 3003 3002 2999 2997 2994 2991 2987 2984 2982 2980 2979 2977 2976 2974 2973 2973 2972 2971 2969 2966 2963 2960 2956 2955 2952 2952 2954 2953 2953 2954 2954 2959 2959 2963
Wind_Speed
31 31 30 31 38 41 40 37 35 32 29 24 21 19 24 22 21 19 18 18 17 17 15 14 14 15 15 15 15 15 15 13 10 7 12 13 15 12 14 17 20 18 18
30 29 37 45 43 40 44 44 41 38 35 31 25 21 22 22 21 20 19 18 17 16 17 16 14 14 13 14 14 13 12 12 11 12 11 11 10 11 13 14 16 16 17
37 33 41 30 19 24 21 47 37 38 39 37 30 25 22 21 20 21 19 18 18 15 14 15 13 12 12 13 14 14 12 12 12 12 15 15 15 14 14 15 14 13 14
23 32 35 30 25 19 22 10 19 23 38 58 46 28 27 26 24 24 22 19 17 16 14 15 15 13 12 13 14 13 14 13 12 13 15 14 14 15 15 14 14 15 15
21 16 23 19 25 29 19 12 21 15 3 17 36 28 28 26 27 25 22 19 18 18 16 16 16 15 13 12 13 12 13 14 16 15 15 16 15 15 15 15 14 14 14
18 18 18 13 11 6 7 14 27 21 23 18 38 29 25 26 24 24 24 22 20 20 19 18 15 14 13 9 9 13 14 15 17 18 18 16 16 17 17 16 16 15 15
10 8 10 16 12 9 10 11 17 25 30 32 42 29 26 25 25 24 22 24 23 23 22 20 16 12 13 14 12 12 13 15 17 19 18 17 19 18 17 15 16 16 16
10 12 12 10 9 10 15 19 20 26 33 32 39 32 31 32 27 28 26 23 24 23 24 22 21 17 16 17 17 14 13 13 14 17 18 17 17 16 16 17 18 18 16
10 7 5 7 8 7 5 6 12 23 29 30 33 30 32 36 29 26 26 26 24 25 26 26 26 22 19 20 20 18 17 15 16 18 21 20 19 19 17 18 18 19 17
4 5 7 6 5 5 4 1 6 13 19 29 28 26 25 27 36 30 34 30 31 24 25 32 30 27 26 26 23 22 21 18 19 21 21 21 23 23 21 19 19 19 19
0 3 5 4 3 2 2 6 9 12 13 22 26 26 20 17 27 30 34 39 46 40 35 32 37 34 31 27 28 27 25 23 25 25 27 26 24 23 24 22 20 20 21
2 4 5 6 7 6 4 6 5 7 12 15 14 13 18 25 25 33 36 34 36 40 42 47 50 44 46 32 31 32 31 30 30 29 28 28 27 25 23 23 25 26 24
6 5 6 8 10 11 9 7 7 10 11 9 7 11 16 18 17 18 20 34 44 39 37 38 38 42 37 39 34 37 41 35 33 32 33 31 29 27 29 28 27 27 25
8 9 10 9 10 12 14 13 13 12 13 14 14 16 19 21 24 26 28 30 34 34 39 42 44 42 42 44 45 45 44 42 35 38 36 35 33 33 33 31 31 30 28
10 9 9 9 11 11 12 13 14 17 20 19 19 20 19 20 22 24 27 30 34 37 40 43 44 41 39 41 44 44 41 41 42 43 42 39 38 36 36 34 32 33 32
6 7 8 8 8 7 8 11 12 14 16 19 20 19 18 18 20 22 25 26 26 29 34 36 36 37 38 40 40 41 41 42 41 44 42 43 42 41 39 36 34 35 34
6 6 6 7 10 10 9 10 9 9 12 12 13 14 17 19 19 21 22 23 24 25 27 29 30 30 31 34 35 36 37 37 38 38 38 38 39 42 44 42 38 36 36
8 9 10 11 12 14 14 13 12 12 12 13 13 14 16 17 20 21 22 22 23 24 26 25 26 28 28 30 32 32 33 33 33 34 34 33 35 37 41 44 42 37 37
8 10 10 12 13 12 12 12 13 16 17 12 12 15 18 19 21 22 21 21 23 24 24 25 26 26 27 30 30 30 30 30 32 33 34 33 33 35 42 46 44 40 39
9 8 8 12 13 13 15 11 10 12 13 18 18 19 20 21 20 23 25 26 27 26 25 26 27 27 26 29 31 30 31 33 32 33 32 32 31 35 38 42 46 47 38
10 10 11 13 13 14 16 16 17 18 19 20 18 19 20 22 24 25 27 27 27 27 28 29 27 26 26 26 30 32 32 31 31 33 31 29 31 34 38 38 38 36 36
12 12 10 13 13 13 13 15 17 20 23 24 23 21 21 23 23 23 24 26 25 24 25 24 27 27 26 27 27 31 34 31 29 29 27 26 28 30 33 39 40 45 38
15 13 11 13 14 13 14 17 15 17 16 18 18 18 19 19 20 20 19 22 22 20 19 16 15 14 15 17 19 23 26 29 31 25 25 30 28 26 26 29 27 24 30
19 18 17 18 17 17 15 18 15 16 14 14 16 19 18 17 18 19 19 19 18 17 16 12 9 10 16 14 13 7 19 22 24 18 22 27 26 23 32 36 37 36 43
20 20 20 19 18 17 16 17 20 20 18 19 19 17 15 18 21 21 21 19 17 16 13 17 15 17 16 10 16 18 14 8 18 23 26 29 28 27 21 22 19 14 18
20 21 19 19 20 17 20 18 23 25 25 20 21 21 19 20 21 20 20 20 19 18 18 18 19 14 16 10 10 11 10 12 15 29 21 24 25 12 11 17 19 15 14
Wind_Direction
223 238 245 249 241 237 238 236 235 233 228 227 232 227 224 228 223 220 221 229 232 238 239 237 241 251 257 263 264 267 264 263 263 240 215 232 254 250 251 260 260 271 262
242 239 239 251 241 231 232 234 235 235 235 222 218 223 220 226 222 220 219 230 228 232 231 222 231 243 250 262 261 254 260 256 249 255 243 229 235 244 257 266 265 267 265
253 241 252 249 236 333 252 218 233 243 239 233 214 210 218 227 231 227 222 228 233 228 236 239 230 236 252 267 279 272 257 250 243 244 245 252 259 262 261 263 268 268 265
263 244 222 280 277 264 262 342 241 251 277 246 233 200 218 225 234 229 226 225 230 232 229 240 236 236 243 260 269 276 278 269 256 247 247 245 244 250 257 263 263 261 266
243 277 289 271 271 268 249 243 244 237 281 247 195 199 220 223 226 230 229 227 226 230 231 234 241 249 244 238 251 258 267 269 265 259 253 252 252 254 260 259 265 260 259
251 246 244 260 269 304 289 264 248 240 232 220 202 211 220 226 222 229 229 224 221 228 232 230 238 254 255 230 247 265 267 271 263 260 259 259 256 248 249 250 255 262 262
253 244 276 297 289 288 268 265 254 235 222 213 207 216 218 218 225 227 232 230 224 226 222 221 231 238 251 257 257 264 275 283 263 254 257 260 261 257 252 254 259 261 269
264 275 283 286 283 280 260 253 241 234 218 216 210 217 221 215 219 221 227 230 230 224 218 219 227 228 240 257 262 266 270 275 266 257 260 268 272 265 259 257 260 267 270
278 274 247 245 250 262 286 246 234 220 213 206 209 230 230 222 222 218 227 232 231 227 223 231 231 234 236 247 256 261 264 265 268 264 264 262 267 270 265 260 264 263 265
250 285 296 290 281 268 258 184 190 216 217 216 230 233 231 222 231 226 223 225 226 238 242 246 245 248 251 252 252 257 258 260 260 265 266 265 262 263 265 264 264 268 264
318 325 325 322 303 256 243 198 196 217 228 240 238 246 248 243 234 234 238 241 237 248 251 256 253 255 251 248 254 257 261 262 260 256 260 260 261 262 264 266 264 264 263
306 324 339 336 338 322 277 261 234 237 220 226 214 230 255 248 243 247 242 245 244 243 248 251 253 260 254 251 254 262 265 262 262 265 265 266 262 262 263 264 262 261 261
277 283 286 292 298 303 296 273 233 215 223 233 235 233 236 241 237 245 253 251 252 245 259 260 261 264 256 250 258 270 268 262 264 265 269 270 269 265 260 257 259 257 258
292 292 287 281 273 271 269 269 261 265 249 248 248 247 250 254 259 266 268 263 262 262 261 263 266 265 268 258 249 257 265 270 265 262 265 266 260 255 257 261 260 260 256
285 286 284 284 288 295 295 288 276 266 266 276 283 277 272 272 273 271 269 265 264 264 263 264 266 267 265 256 252 258 263 264 263 260 260 254 254 254 253 261 257 252 254
302 298 294 294 295 290 284 286 286 282 281 274 278 284 285 286 284 282 282 282 277 274 275 273 269 265 259 258 259 261 263 263 262 262 257 256 249 248 249 254 252 251 249
315 313 305 294 290 282 278 282 285 284 277 277 286 286 280 282 286 286 284 283 284 282 278 280 277 272 268 263 261 262 263 261 260 257 255 254 251 246 242 247 249 249 247
298 294 290 292 285 276 273 273 265 264 277 285 280 280 279 278 279 282 285 288 288 285 283 281 279 277 272 271 270 265 260 254 254 255 256 256 251 245 238 236 241 245 247
285 288 294 296 292 290 290 290 296 300 301 290 289 291 293 287 284 285 289 292 295 293 290 284 279 277 271 267 268 268 261 256 258 260 259 257 251 242 236 234 237 241 240
299 305 297 302 300 296 300 294 294 294 298 303 296 293 298 301 292 290 297 299 299 296 293 292 285 282 277 266 259 259 258 259 262 265 266 259 253 240 239 240 230 238 237
309 307 314 311 298 296 303 309 301 295 295 291 299 297 303 303 303 300 295 294 293 289 289 289 287 284 273 269 261 259 261 260 261 265 269 271 254 239 243 241 238 232 241
301 292 302 310 311 311 313 316 302 292 292 293 296 293 294 298 299 299 298 296 295 297 298 293 287 286 278 269 265 255 254 258 257 258 252 260 253 243 243 238 238 240 220
297 294 298 305 308 315 329 338 325 312 313 296 294 297 299 300 300 303 306 306 306 304 312 324 309 311 323 310 271 259 254 252 251 254 252 248 249 240 235 223 234 242 233
292 293 295 299 303 312 326 334 325 327 323 322 313 298 296 293 295 301 310 316 320 312 316 320 336 311 298 284 304 285 274 274 267 250 263 249 234 242 233 238 242 227 216
283 283 282 284 291 302 309 318 321 316 324 326 321 326 316 295 289 290 296 299 301 309 302 309 315 322 321 329 293 287 271 220 181 200 190 191 180 176 182 191 208 212 198
294 284 276 271 278 276 295 299 298 303 307 310 311 322 322 323 309 290 289 292 289 284 279 287 288 289 289 298 329 342 354 360 277 277 259 257 244 258 226 218 213 205 199